Location: Antin
(43.3330°N, 0.2804°E)
Time: 23:30:46
(UTC+00:00)

YAOGAN 1 - Pass Details

Date: 16 October 2021
Orbit: 618 x 620 km, 97.9° (Epoch: 04 December)

Event Time Altitude Azimuth Distance (km) Brightness Sun altitude
Rises 18:02:21 0° 141° (SE) 2,884 5.6 -9.5°
Reaches altitude 10° 18:04:41 10° 132° (SE) 1,983 4.7 -10.0°
Maximum altitude 18:08:31 32° 69° (ENE) 1,067 3.3 -10.7°
Drops below altitude 10° 18:12:23 10° 6° (N) 1,997 5.1 -11.4°
Sets 18:14:44 0° 357° (N) 2,908 6.0 -11.8°
